Weather reports worldwide

Advertisment
Bilbao/Aeropuerto, Spain (8025): temperature & dewpoint: 10.12.2018 01:00:00 - 16.12.2018 01:00:00 (CET)Bilbao/Aeropuerto, Spain (8025): wind speed: 10.12.2018 01:00:00 - 16.12.2018 01:00:00 (CET)Bilbao/Aeropuerto, Spain (8025): wind direction: 10.12.2018 01:00:00 - 16.12.2018 01:00:00 (CET)Bilbao/Aeropuerto, Spain (8025): reduced air pressure: 10.12.2018 01:00:00 - 16.12.2018 01:00:00 (CET)Bilbao/Aeropuerto, Spain (8025): visibility: 10.12.2018 01:00:00 - 16.12.2018 01:00:00 (CET)
Date & Time tt [°C] td [°C] ff [km/h] ff [kn] dd ppp [hPa] vv [km]
16.12.2018 01:00:00 - - - - - - -
16.12.2018 00:00:00 14,8 12,7 0 0 N 1018,5 -
15.12.2018 23:00:00 15,1 12,6 15 8 NNW 1018,8 -
15.12.2018 22:00:00 17,2 8,9 29 16 WSW 1018,0 15
15.12.2018 21:00:00 17,6 8,4 22 12 SW 1017,3 -
15.12.2018 20:00:00 17,5 8,4 13 7 SW 1016,8 -
15.12.2018 19:00:00 17,5 8,1 18 10 SW 1016,8 15
15.12.2018 18:00:00 17,3 8,0 22 12 SW 1016,9 -
15.12.2018 17:00:00 17,1 8,0 24 13 SW 1016,8 -
15.12.2018 16:00:00 17,5 8,1 21 11 SW 1016,8 50
15.12.2018 15:00:00 17,7 9,1 16 9 WSW 1016,4 -
15.12.2018 14:00:00 17,0 8,9 8 4 SSW 1017,2 -
15.12.2018 13:00:00 16,6 8,8 11 6 S 1018,2 20
15.12.2018 12:00:00 16,6 8,9 15 8 S 1019,3 -
15.12.2018 11:00:00 14,8 8,3 5 3 SSW 1020,2 -
15.12.2018 10:00:00 13,0 8,6 13 7 ESE 1020,3 20
15.12.2018 09:00:00 12,7 8,4 9 5 E 1020,4 -
15.12.2018 08:00:00 12,6 8,0 9 5 ESE 1020,2 -
15.12.2018 07:00:00 11,8 7,8 8 4 SE 1020,1 15
15.12.2018 06:00:00 11,9 7,7 8 4 ESE 1020,8 -
15.12.2018 05:00:00 9,6 6,7 0 0 N 1021,1 -
15.12.2018 04:00:00 9,1 6,7 8 4 SE 1021,8 -
15.12.2018 03:00:00 8,7 6,1 8 4 SE 1021,7 -
15.12.2018 02:00:00 8,3 6,1 11 6 SE 1022,0 -
15.12.2018 01:00:00 7,9 6,0 13 7 SE 1022,6 -
15.12.2018 00:00:00 7,1 6,0 8 4 SE 1023,0 -
14.12.2018 23:00:00 6,7 6,1 11 6 ESE 1023,6 -
14.12.2018 22:00:00 5,8 5,2 5 3 ESE 1024,0 20
14.12.2018 21:00:00 6,1 5,4 9 5 E 1024,3 -
14.12.2018 20:00:00 7,0 6,3 9 5 ESE 1024,4 -
14.12.2018 19:00:00 8,0 6,6 4 2 ESE 1024,5 20
14.12.2018 18:00:00 10,3 6,3 0 0 N 1023,9 -
14.12.2018 17:00:00 12,6 6,4 15 8 WNW 1023,6 -
14.12.2018 16:00:00 12,5 7,3 22 12 NW 1023,2 15
14.12.2018 15:00:00 12,6 7,5 21 11 WNW 1022,6 -
14.12.2018 14:00:00 11,4 8,2 18 10 NW 1022,8 -
14.12.2018 13:00:00 10,9 8,8 11 6 WNW 1022,9 20
14.12.2018 12:00:00 10,8 8,5 16 9 WNW 1022,9 -
14.12.2018 11:00:00 10,7 8,3 18 10 WNW 1022,4 -
14.12.2018 10:00:00 10,4 8,2 15 8 WNW 1021,3 10
14.12.2018 09:00:00 10,4 8,1 15 8 WNW 1020,4 -
14.12.2018 08:00:00 10,5 7,7 16 9 W 1019,4 -
14.12.2018 07:00:00 10,1 7,9 13 7 WNW 1018,6 15
14.12.2018 06:00:00 10,2 7,8 24 13 WNW 1018,0 -
14.12.2018 05:00:00 10,1 8,0 26 14 WNW 1017,5 -
14.12.2018 04:00:00 10,7 7,8 22 12 WNW 1017,0 -
14.12.2018 03:00:00 10,6 7,7 18 10 WNW 1016,6 -
14.12.2018 02:00:00 10,6 8,0 22 12 WNW 1016,6 -
14.12.2018 01:00:00 10,5 8,3 16 9 WNW 1016,6 -
14.12.2018 00:00:00 10,3 8,7 13 7 WNW 1016,1 -
13.12.2018 23:00:00 10,7 8,1 21 11 WNW 1015,1 -
13.12.2018 22:00:00 10,5 8,1 34 18 WNW 1014,6 8
13.12.2018 21:00:00 12,0 8,3 34 18 WNW 1013,7 -
13.12.2018 20:00:00 11,9 7,8 31 17 NW 1012,9 -
13.12.2018 19:00:00 11,2 8,6 28 15 NW 1012,3 9
13.12.2018 18:00:00 10,7 8,5 39 21 NW 1011,7 -
13.12.2018 17:00:00 10,9 8,5 44 24 NW 1010,3 -
13.12.2018 16:00:00 11,4 8,4 31 17 WNW 1008,9 12
13.12.2018 15:00:00 11,6 7,3 26 14 WNW 1008,3 -
13.12.2018 14:00:00 11,8 7,1 22 12 WNW 1007,9 -
13.12.2018 13:00:00 11,2 7,9 16 9 WNW 1007,9 20
13.12.2018 12:00:00 9,9 7,5 15 8 WNW 1008,2 -
13.12.2018 11:00:00 10,5 8,3 22 12 WNW 1007,9 -
13.12.2018 10:00:00 11,1 9,8 24 13 NW 1006,8 2,5
13.12.2018 09:00:00 13,2 7,7 28 15 WNW 1005,8 -
13.12.2018 08:00:00 13,1 8,1 8 4 WNW 1004,6 -
13.12.2018 07:00:00 13,1 7,8 13 7 S 1004,4 20
13.12.2018 06:00:00 12,5 8,7 15 8 SSE 1005,2 -
13.12.2018 05:00:00 13,0 8,6 18 10 SSW 1006,2 -
13.12.2018 04:00:00 15,7 5,9 26 14 SW 1006,5 -
13.12.2018 03:00:00 15,6 6,1 16 9 SW 1007,3 -
13.12.2018 02:00:00 15,2 6,2 16 9 SW 1008,0 -
13.12.2018 01:00:00 14,2 5,3 11 6 S 1009,0 -
13.12.2018 00:00:00 14,6 4,9 22 12 SW 1010,7 -
12.12.2018 23:00:00 13,3 5,2 9 5 SSE 1011,2 -
12.12.2018 22:00:00 12,6 4,7 13 7 S 1012,7 15
12.12.2018 21:00:00 12,4 5,3 11 6 SSE 1013,9 -
12.12.2018 20:00:00 12,2 6,7 15 8 S 1014,2 -
12.12.2018 19:00:00 10,9 8,6 8 4 SE 1016,5 15
12.12.2018 18:00:00 11,0 8,7 8 4 SE 1016,9 -
12.12.2018 17:00:00 12,0 8,8 4 2 ESE 1017,6 -
12.12.2018 16:00:00 12,5 9,3 8 4 ESE 1018,0 15
12.12.2018 15:00:00 13,0 9,1 8 4 ESE 1018,4 -
12.12.2018 14:00:00 12,8 10,1 8 4 E 1019,4 -
12.12.2018 13:00:00 12,1 10,2 8 4 ESE 1020,5 20
12.12.2018 12:00:00 11,8 10,0 8 4 ESE 1021,7 -
12.12.2018 11:00:00 11,3 9,9 8 4 E 1022,3 -
12.12.2018 10:00:00 10,7 9,8 5 3 SE 1022,7 12
12.12.2018 09:00:00 10,6 9,7 5 3 NW 1022,9 -
12.12.2018 08:00:00 10,8 10,4 4 2 W 1022,7 -
12.12.2018 07:00:00 10,7 10,5 0 0 N 1022,6 5
12.12.2018 06:00:00 10,4 10,1 4 2 E 1022,6 -
12.12.2018 05:00:00 10,7 10,0 0 0 N 1022,7 -
12.12.2018 04:00:00 10,8 9,7 8 4 W 1023,0 -
12.12.2018 03:00:00 9,4 8,3 0 0 N 1022,9 -
12.12.2018 02:00:00 8,9 7,7 0 0 N 1022,8 -
12.12.2018 01:00:00 8,3 7,3 4 2 ESE 1023,0 -
12.12.2018 00:00:00 7,4 6,8 8 4 E 1023,2 -
11.12.2018 23:00:00 6,8 6,1 8 4 E 1022,9 -
11.12.2018 22:00:00 6,4 5,2 9 5 E 1022,6 15
11.12.2018 21:00:00 7,5 6,4 8 4 E 1022,3 -
11.12.2018 20:00:00 8,4 6,7 4 2 ESE 1021,5 -
11.12.2018 19:00:00 10,0 7,5 0 0 N 1021,1 15
11.12.2018 18:00:00 11,7 7,2 0 0 N 1020,5 -
11.12.2018 17:00:00 12,8 6,9 8 4 WNW 1020,1 -
11.12.2018 16:00:00 15,1 6,2 0 0 N 1019,9 40
11.12.2018 15:00:00 15,4 7,5 2 1 SE 1020,0 -
11.12.2018 14:00:00 15,1 6,0 8 4 ESE 1020,4 -
11.12.2018 13:00:00 14,1 6,7 4 2 S 1020,9 25
11.12.2018 12:00:00 11,8 6,0 11 6 SE 1021,7 -
11.12.2018 11:00:00 9,4 5,9 9 5 ESE 1022,1 -
11.12.2018 10:00:00 6,1 4,4 8 4 E 1021,9 20
11.12.2018 09:00:00 5,1 3,6 11 6 SE 1022,2 -
11.12.2018 08:00:00 5,0 3,8 15 8 SE 1022,3 -
11.12.2018 07:00:00 4,7 3,9 8 4 SSE 1022,6 15
11.12.2018 06:00:00 4,5 3,9 9 5 SSE 1023,3 -
11.12.2018 05:00:00 4,8 4,2 11 6 SE 1024,5 -
11.12.2018 04:00:00 4,5 3,9 11 6 SE 1025,6 -
11.12.2018 03:00:00 5,1 4,5 8 4 SE 1026,3 -
11.12.2018 02:00:00 5,6 4,9 5 3 SE 1026,7 -
11.12.2018 01:00:00 5,2 4,5 11 6 SE 1027,4 -
11.12.2018 00:00:00 6,1 5,4 13 7 ESE 1028,1 -
10.12.2018 23:00:00 6,2 5,4 11 6 SE 1028,7 -
10.12.2018 22:00:00 6,2 5,3 11 6 SE 1029,1 15
10.12.2018 21:00:00 7,3 6,2 8 4 ESE 1029,8 -
10.12.2018 20:00:00 8,4 6,9 8 4 ESE 1030,3 -
10.12.2018 19:00:00 9,5 7,4 5 3 E 1030,2 15
10.12.2018 18:00:00 11,1 7,3 8 4 ESE 1030,1 -
10.12.2018 17:00:00 12,8 7,2 8 4 E 1030,4 -
10.12.2018 16:00:00 14,2 7,7 13 7 E 1030,7 25
10.12.2018 15:00:00 14,6 7,5 9 5 E 1031,1 -
10.12.2018 14:00:00 14,5 7,9 9 5 ESE 1031,6 -
10.12.2018 13:00:00 14,1 9,5 2 1 S 1032,6 25
10.12.2018 12:00:00 13,5 9,9 4 2 SE 1033,5 -
10.12.2018 11:00:00 12,8 10,5 4 2 ENE 1034,2 -
10.12.2018 10:00:00 10,9 10,4 8 4 ESE 1034,2 20
10.12.2018 09:00:00 9,6 9,3 8 4 SE 1034,2 -
10.12.2018 08:00:00 9,5 9,2 5 3 E 1034,3 -
10.12.2018 07:00:00 10,0 9,8 5 3 E 1034,0 15
10.12.2018 06:00:00 10,1 9,9 8 4 E 1034,1 -
10.12.2018 05:00:00 10,3 10,0 5 3 E 1034,2 -
10.12.2018 04:00:00 10,6 10,3 4 2 SE 1034,7 -
10.12.2018 03:00:00 10,7 10,4 9 5 E 1034,9 -
10.12.2018 02:00:00 10,5 10,0 8 4 ESE 1035,0 -
10.12.2018 01:00:00 11,3 10,4 2 1 ESE 1035,5 -

tt = temperature
td = dewpoint
ff = wind speed
dd = wind direction
ppp = reduced air pressure
vv = visibility

Next stations